Regional Weather Roundup
Issued by NWS Albany, NY

Home | Current Version | Previous Version | Text Only | Print | Product List | Glossary On
Versions: 1 2 3 4 5 6 7 8 9 10 11 12 13 14 15 16 17 18 19 20 21 22 23 24 25 26 27 28 29 30 31 32 33 34 35 36 37 38 39 40 41 42 43 44 45 46 47 48 49 50
000
ASUS41 KALY 280710
RWRALY

NEW YORK STATE HOURLY WEATHER ROUNDUP
NATIONAL WEATHER SERVICE ALBANY NY
200 AM EST FRI NOV 28 2014

NOTE: "FAIR" INDICATES FEW OR NO CLOUDS BELOW 12,000 FEET WITH NO
SIGNIFICANT WEATHER AND/OR NO OBSTRUCTIONS TO VISIBILITY.

NYZ032-033-038>043-046>054-057>066-NYZ062>081-280800-
EAST


CITY           SKY/WX    TMP DP  RH WIND       PRES   REMARKS
ALBANY         FLURRIES  27  25  92 CALM      30.05R
GLENS FALLS    LGT SNOW  27  24  89 CALM      30.04R FOG
POUGHKEEPSIE   FOG       22  20  92 CALM      30.06R VSB 1/4
MONTGOMERY     CLEAR     24  22  91 W3        30.05R
WHITE PLAINS   MOCLDY    31  25  78 W8        30.04R WCI  23
ISLIP          CLEAR     33  26  75 NW7       30.02R WCI  27
NEW YORK CITY  CLEAR     33  24  69 NW15      30.07R WCI  23
CENTRAL PARK   CLEAR     32  23  69 VRB5      30.10R WCI  27
$$

NYZ005>009-017-018-044>046-055-056-280800-
CENTRAL


CITY           SKY/WX    TMP DP  RH WIND       PRES   REMARKS
FULTON         CLOUDY    25  19  78 NW5       30.09R WCI  19
SYRACUSE       MOCLDY    25  21  85 W9        30.08R WCI  15
ROME           CLOUDY    27  23  85 W6        30.07R WCI  20
ELMIRA         LGT SNOW  29  26  89 E5        30.06R FOG     WCI  24
BINGHAMTON     LGT SNOW  24  21  88 W5        30.01R FOG     WCI  18
MONTICELLO     PTCLDY    21  19  93 W6        30.01R WCI  14
$$

NYZ026>034-041>043-280800-
NORTH


CITY           SKY/WX    TMP DP  RH WIND       PRES   REMARKS
WATERTOWN      PTCLDY    23  18  81 CALM      30.09R
FORT DRUM      NOT AVBL
MASSENA        CLOUDY    24  18  77 SW5       30.07S WCI  18
SARANAC LAKE   LGT SNOW  21  18  88 CALM      29.94R FOG
PLATTSBURGH    LGT SNOW  26  23  88 CALM      30.04S FOG
$$

NYZ001>004-010>016-019>021-280800-
WEST


CITY           SKY/WX    TMP DP  RH WIND       PRES   REMARKS
NIAGARA FALLS  PTCLDY    24  15  68 NW16      30.17R WCI  11
BUFFALO        MOCLDY    26  16  65 NW13      30.16R WCI  15
DUNKIRK        CLOUDY    27  19  72 NW15G23   30.20R WCI  15
JAMESTOWN      CLOUDY    21  18  86 NW10      30.12R WCI  10
WELLSVILLE     LGT SNOW  24  21  88 NW12G20   30.05R FOG     WCI  13
ROCHESTER      FLURRIES  29  24  82 NW9       30.13R WCI  20
PENN YAN       LGT SNOW  28  23  81 NW3       30.09R
$$

             KEY
       WCI = WIND CHILL INDEX
       VSB = VISIBILITY
       HX  = HEAT INDEX
$$



USA.gov is the U.S. government's official web portal to all federal, state and local government web resources and services.